Location: Eaton Estates
(41.3089°N, 82.0057°W)
Time: 11:53:07
(UTC+00:00)

Cosmos 2123 Rocket - Pass Details

Date: 19 October 2021
Orbit: 961 x 992 km, 82.9° (Epoch: 29 November)

Event Time Altitude Azimuth Distance (km) Brightness Sun altitude
Rises 00:04:45 0° 354° (N) 3,717 7.1 -16.3°
Reaches altitude 10° 00:07:18 10° 356° (N) 2,763 6.4 -16.7°
Maximum altitude 00:13:39 74° 81° (E) 1,030 3.9 -17.9°
Drops below altitude 10° 00:19:55 10° 167° (SSE) 2,732 6.2 -19.1°
Sets 00:22:25 0° 169° (S) 3,672 6.9 -19.6°
